TimePDT,TemperatureF,Dew PointF,Humidity,Sea Level PressureIn,VisibilityMPH,Wind Direction,Wind SpeedMPH,Gust SpeedMPH,PrecipitationIn,Events,Conditions,WindDirDegrees,DateUTC
1:53 AM,57.9,39.0,49,29.99,10.0,WNW,11.5,19.6,N/A,,Clear,300,2012-10-09 08:53:00
2:53 AM,55.9,39.9,55,30.00,10.0,West,6.9,-,N/A,,Clear,270,2012-10-09 09:53:00
3:53 AM,53.1,37.0,55,30.01,10.0,Variable,5.8,-,N/A,,Clear,0,2012-10-09 10:53:00
5:53 AM,48.0,37.0,66,30.04,10.0,Calm,Calm,-,N/A,,Clear,0,2012-10-09 12:53:00
6:53 AM,48.0,36.0,63,30.05,10.0,Calm,Calm,-,N/A,,Clear,0,2012-10-09 13:53:00
7:53 AM,46.9,37.0,68,30.06,10.0,Calm,Calm,-,N/A,,Clear,0,2012-10-09 14:53:00
8:53 AM,54.0,39.9,59,30.07,10.0,Variable,3.5,-,N/A,,Clear,0,2012-10-09 15:53:00
9:53 AM,57.9,42.1,56,30.08,10.0,NNW,6.9,-,N/A,,Clear,330,2012-10-09 16:53:00
10:53 AM,62.1,42.1,48,30.07,10.0,NNW,8.1,-,N/A,,Clear,330,2012-10-09 17:53:00
11:53 AM,64.9,43.0,45,30.06,10.0,Variable,4.6,-,N/A,,Clear,0,2012-10-09 18:53:00
12:53 PM,69.1,42.1,38,30.04,10.0,NNW,3.5,-,N/A,,Clear,340,2012-10-09 19:53:00
1:53 PM,72.0,42.1,34,30.01,10.0,Calm,Calm,-,N/A,,Clear,0,2012-10-09 20:53:00
2:53 PM,75.0,39.0,27,29.99,10.0,Calm,Calm,-,N/A,,Clear,0,2012-10-09 21:53:00
3:53 PM,77.0,37.0,24,29.97,10.0,Calm,Calm,-,N/A,,Clear,0,2012-10-09 22:53:00
4:53 PM,79.0,30.9,17,29.95,10.0,ENE,3.5,-,N/A,,Clear,70,2012-10-09 23:53:00
5:53 PM,73.0,37.9,28,29.94,10.0,WSW,3.5,-,N/A,,Clear,250,2012-10-10 00:53:00
6:53 PM,64.9,46.0,50,29.96,10.0,NNW,8.1,-,N/A,,Clear,340,2012-10-10 01:53:00
7:53 PM,62.1,46.9,58,29.97,10.0,NW,8.1,-,N/A,,Clear,320,2012-10-10 02:53:00
8:53 PM,59.0,42.1,53,29.98,10.0,WNW,5.8,-,N/A,,Clear,300,2012-10-10 03:53:00
9:53 PM,57.0,41.0,55,29.99,10.0,Calm,Calm,-,N/A,,Clear,0,2012-10-10 04:53:00
10:53 PM,53.1,44.1,71,29.99,10.0,Calm,Calm,-,N/A,,Clear,0,2012-10-10 05:53:00
11:53 PM,51.1,43.0,74,29.99,10.0,Calm,Calm,-,N/A,,Clear,0,2012-10-10 06:53:00